Flag for U.S.A. Weather past 2 weeks in Key West, Florida, U.S.A.

Now
85 °F

Clear.


Feels Like: 92 °F
Forecast: 83 / 90 °F
Wind: No wind

Location: Key West International Airport

Current Time: Jul 28, 2014 at 12:23:20 AM

Latest Report: Jul 27, 2014 at 11:53 PM


Visibility: 10 mi

Pressure: 30.10 "Hg

Humidity: 70%

Dew point: 74 °F

Location of Key WestLocation

Historic Weather in Key West — Graph

°F

Key West temperature yesterday

Maximum temperature yesterday: 90 °F (at 1:53 PM)
Minimum temperature yesterday: 84 °F (at 5:53 AM)
Average temperature yesterday: 87 °F

Past Weeks' High & Low Weather Summary

 TemperatureHumidityPressure
High92 °F (Jul 18, 2:53 PM)88% (Jul 20, 1:53 AM)30.13 "Hg (Jul 20, 1:53 AM)
Low78 °F (Jul 19, 11:53 PM)57% (Jul 27, 12:53 PM)29.97 "Hg (Jul 16, 6:53 PM)
Average86 °F69%30.05 "Hg
* Reported Jul 12 9:53 PM — Jul 27 9:53 PM, Key West, Weather by CustomWeather, © 2014

Note: Actual official high and low records may vary slightly from our data, if they occured in-between our weather recording intervals... More about our weather records

Advertising

Key West weather history for previous 24 hours

 ConditionsComfort  
Time TempWeatherWind HumidityBarometerVisibility
9:53 PM
Jul 27
86 °FClear.3 mph67%30.09 "Hg10 mi
8:53 PM86 °FSunny.No wind65%30.08 "Hg10 mi
7:53 PM87 °FSunny.3 mph63%30.08 "Hg10 mi
6:53 PM88 °FSunny.6 mph63%30.08 "Hg10 mi
5:53 PM89 °FSunny.6 mph61%30.08 "Hg10 mi
4:53 PM89 °FSunny.7 mph59%30.07 "Hg10 mi
3:53 PM89 °FSunny.7 mph59%30.08 "Hg10 mi
2:53 PM89 °FSunny.5 mph57%30.10 "Hg10 mi
1:53 PM90 °FSunny.7 mph57%30.11 "Hg10 mi
12:53 PM89 °FSunny.7 mph57%30.12 "Hg10 mi
11:53 AM89 °FSunny.7 mph59%30.13 "Hg10 mi
10:53 AM89 °FSunny.8 mph59%30.12 "Hg10 mi
9:53 AM88 °FPassing clouds.7 mph63%30.12 "Hg10 mi
8:53 AM87 °FBroken clouds.5 mph63%30.11 "Hg10 mi
7:53 AM86 °FPassing clouds.5 mph65%30.09 "Hg10 mi
6:53 AM84 °FPartly cloudy.No wind67%30.08 "Hg10 mi
5:53 AM84 °FPassing clouds.7 mph67%30.07 "Hg10 mi
4:53 AM85 °FPassing clouds.6 mph65%30.06 "Hg10 mi
3:53 AM85 °FPassing clouds.8 mph68%30.06 "Hg10 mi
2:53 AM85 °FPassing clouds.9 mph70%30.06 "Hg10 mi
1:53 AM85 °FPassing clouds.13 mph70%30.07 "Hg10 mi
12:53 AM86 °FPassing clouds.12 mph65%30.09 "Hg10 mi
Weather by CustomWeather, © 2014

See weather overviewHow to use our weather pages